Location: Newark
(58.8333°N, 23.5833°E)
Time: 05:05:29
(UTC+00:00)

Explorer 7 - Pass Details

Date: 24 November 2019
Orbit: 485 x 680 km, 50.3° (Epoch: 13 December)

Event Time Altitude Azimuth Distance (km) Brightness Sun altitude
Rises 20:17:55 0° 200° (SSW) 2,986 - -46.6°
Reaches altitude 10° 20:21:32 10° 172° (S) 2,045 - -46.9°
Maximum altitude 20:23:35 13° 147° (SSE) 1,847 - -47.1°
Drops below altitude 10° 20:25:35 10° 121° (ESE) 2,002 - -47.2°
Sets 20:29:03 0° 93° (E) 2,863 - -47.5°
